EDT,Max TemperatureF,Mean TemperatureF,Min TemperatureF,Max Dew PointF,MeanDew PointF,Min DewpointF,Max Humidity, Mean Humidity, Min Humidity, Max Sea Level PressureIn, Mean Sea Level PressureIn, Min Sea Level PressureIn, Max VisibilityMiles, Mean VisibilityMiles, Min VisibilityMiles, Max Wind SpeedMPH, Mean Wind SpeedMPH, Max Gust SpeedMPH,PrecipitationIn, CloudCover, Events, WindDirDegrees
2013-8-1,78,69,59,65,62,57,97,78,58,30.03,29.98,29.92,10,8,1,16,2,30,0.10,6,Rain,280
2013-8-2,78,69,59,61,58,55,97,72,47,30.08,30.03,29.99,10,7,1,14,3,18,0.00,4,,266
2013-8-3,76,67,57,63,60,56,93,79,64,30.07,30.04,30.02,10,10,10,13,2,17,0.01,7,Rain,240
2013-8-4,75,64,52,61,56,50,100,73,46,30.14,30.08,30.03,10,8,1,15,4,23,0.00,5,,289
2013-8-5,76,63,49,57,52,47,96,62,28,30.19,30.13,29.93,10,7,0,10,2,15,0.00,3,Fog,325
2013-8-6,82,71,59,63,58,56,93,69,45,30.08,30.05,30.01,10,10,9,6,1,10,0.23,4,Rain,277
2013-8-7,84,72,60,70,65,59,97,78,58,30.08,30.04,30.01,10,9,2,13,2,18,0.25,6,Rain,232
2013-8-8,81,73,64,72,67,63,100,84,67,30.08,30.04,30.00,10,7,0,13,1,18,0.90,7,Fog-Rain,154
2013-8-9,81,76,70,68,67,66,97,80,62,30.09,30.02,29.98,10,10,6,16,5,25,0.30,8,Rain,226
2013-8-10,81,72,63,68,66,61,97,76,54,30.16,30.12,30.06,10,10,6,12,3,16,0.10,6,Rain,318
2013-8-11,84,74,64,67,63,62,93,72,51,30.18,30.13,30.06,10,10,7,10,1,13,0.00,5,,312
2013-8-12,83,73,62,66,63,61,100,78,55,30.15,30.09,29.97,10,7,1,13,2,16,T,5,,298
2013-8-13,76,69,61,65,63,56,93,81,68,29.98,29.92,29.87,10,9,3,15,4,21,1.65,7,Rain,241
2013-8-14,66,57,48,53,48,45,96,74,52,30.22,30.11,29.99,10,10,3,13,4,17,0.00,4,,325
2013-8-15,75,61,47,55,48,45,100,72,43,30.26,30.20,30.12,10,5,0,9,2,13,0.00,4,Fog,300
2013-8-16,78,64,49,57,51,48,96,68,39,30.22,30.18,30.14,10,5,0,8,1,13,0.00,5,Fog,326
2013-8-17,74,62,49,56,52,48,96,71,46,30.28,30.25,30.22,10,7,0,13,3,18,T,4,Fog,138
2013-8-18,75,68,60,65,62,57,100,84,68,30.26,30.22,30.19,10,9,1,9,1,13,0.23,8,Rain,344
2013-8-19,79,69,59,64,62,57,100,79,58,30.21,30.17,30.12,10,9,2,9,1,14,0.01,6,Rain,300
2013-8-20,81,69,57,64,59,55,97,73,49,30.28,30.22,30.17,10,5,0,8,1,14,0.00,5,Fog,299
2013-8-21,81,70,58,69,61,57,93,80,67,30.28,30.23,30.17,10,6,1,14,1,20,0.24,6,Rain,235
2013-8-22,80,70,59,66,61,57,97,78,58,30.21,30.15,30.07,10,10,9,12,2,15,0.00,5,,273
2013-8-23,74,65,56,65,62,54,93,77,61,30.22,30.10,30.04,10,9,1,9,1,13,0.49,6,Rain,357
2013-8-24,80,68,55,61,56,53,100,70,39,30.38,30.29,30.22,10,5,1,10,1,18,0.00,6,,186
2013-8-25,79,66,52,60,55,51,100,73,45,30.45,30.39,30.32,10,6,0,10,2,13,0.00,3,Fog,306
2013-8-26,80,66,52,62,56,51,100,73,45,30.35,30.29,30.15,10,7,1,9,2,12,0.00,3,,276
2013-8-27,77,70,63,68,65,61,90,82,73,30.14,30.09,30.02,10,10,10,10,2,15,T,7,,240
2013-8-28,78,73,68,70,68,66,97,86,74,30.05,29.97,29.89,10,7,2,14,2,20,3.32,8,Rain,174
2013-8-29,84,73,62,70,67,61,97,76,55,30.08,30.01,29.93,10,10,5,10,3,14,0.21,6,Rain,344
2013-8-30,86,73,59,68,62,57,100,76,51,30.12,30.05,29.94,10,5,0,10,2,16,0.00,3,Fog,310
2013-8-31,83,73,63,67,64,59,93,72,51,29.97,29.93,29.87,10,9,2,12,2,18,0.00,2,,230